{"data":{"norad_id":40733,"epoch":"2026-09-20T03:50:28.650048Z","epoch_age_seconds":51299,"freshness":"FRESH","line1":"1 40733U 15034B   26263.16005382 -.00000269  00000+0  00000+0 0  9990","line2":"2 40733   0.0423 357.5413 0000946 183.3494 165.7991  1.00271173 40966","mean_motion":1.00271173,"eccentricity":9.46e-5,"inclination_deg":0.0423,"raan_deg":357.5413,"arg_perigee_deg":183.3494,"mean_anomaly_deg":165.7991,"bstar":0,"rev_number":4096,"period_min":1436.1056691737,"perigee_km":35782.777728006,"apogee_km":35790.755327753,"semimajor_km":42164.90352788,"source":"CELESTRAK","updated_at":"2026-09-20T09:00:35.217513Z"}}